CAPE
0 0 0 0 0 0 0 0 0 0 0 0 0 0 0 0 0 0 0 0 0 0 0 0 0 2 0 18 354 967 1167 1172 1265 1385 1442 1516 1534 1526 1609 1542 1534 1595 1613 1668 1688 1654 1662 1655 1708 1699 1688 1673 1622 1504 1338 1226 1220 1294 1444 1660 1818 1845 1858 1870 1664 1613 1598 1549 1576 1699 1584 1559 1584 1750 1770 1903 2088 2174 2108 2345 2558 2696 2689 3048 3228 3424
0 0 0 0 0 0 0 0 0 0 0 0 0 0 0 0 0 0 0 0 2 0 0 0 0 2 0 0 140 856 1180 1161 1184 1317 1436 1487 1491 1537 1640 1664 1632 1644 1613 1560 1640 1661 1628 1624 1678 1698 1745 1779 1711 1742 1563 1376 1232 1287 1294 1514 1778 2002 2021 1966 1939 1856 1819 1813 1700 1579 1585 1586 1731 1820 1885 2012 2138 2257 2222 2574 2699 2738 2762 3065 3276 3345
0 0 0 0 0 0 0 0 0 0 0 0 0 0 0 0 0 0 0 4 7 0 0 0 0 0 0 0 94 883 1109 1150 1105 1202 1344 1467 1492 1528 1547 1697 1737 1685 1687 1606 1614 1594 1612 1616 1611 1684 1720 1715 1735 1822 1792 1582 1327 1312 1355 1552 1818 1998 2139 2097 1971 2058 2040 2042 1998 1835 1872 1840 1861 1960 2106 2130 2238 2269 2386 2523 2682 2704 2948 3173 3211 3382
0 0 0 0 0 0 0 0 0 0 0 0 0 0 0 0 0 0 0 2 4 0 0 0 0 0 1 91 65 771 952 1211 1209 1214 1358 1458 1528 1526 1510 1602 1694 1701 1704 1660 1633 1600 1560 1617 1642 1676 1763 1819 1802 1843 1884 1838 1663 1505 1499 1634 1841 2116 2170 2186 2186 2152 2137 2182 2328 2211 2252 2166 2148 2326 2238 2441 2576 2646 2499 2462 2586 2790 3018 3174 3215 3324
0 0 0 0 0 0 0 0 0 0 0 0 0 0 0 0 0 0 0 0 0 0 0 0 0 0 0 2 422 746 914 1111 1221 1198 1276 1398 1469 1500 1515 1496 1602 1624 1681 1670 1608 1592 1593 1616 1640 1712 1802 1819 1852 1820 1890 1904 1906 1796 1644 1757 1958 2018 2117 2310 2324 2212 2189 2242 2246 2244 2160 2159 2204 2196 2251 2428 2450 2536 2616 2499 2726 2849 2946 3098 3095 3248
0 0 0 0 0 0 0 0 0 0 0 0 0 0 0 0 0 0 0 0 0 0 0 0 0 0 64 58 165 1035 1000 1079 1153 1181 1180 1265 1311 1418 1431 1452 1510 1545 1572 1642 1581 1580 1576 1653 1680 1728 1799 1798 1857 1940 1972 1990 2005 2023 2042 2002 2002 2050 2206 2294 2442 2372 2289 2121 2177 1984 1739 1665 1711 1889 1994 2140 2289 2415 2409 2498 2388 2830 2848 2852 3000 3166
0 0 0 0 0 0 0 0 0 0 0 0 0 0 0 0 0 0 0 0 0 0 0 0 0 0 0 0 33 530 983 1091 1122 1107 1132 1171 1252 1254 1367 1412 1432 1468 1525 1546 1530 1522 1516 1600 1678 1699 1806 1830 1836 1927 1948 1983 2008 2109 2171 2180 2199 2216 2323 2380 2466 2418 2231 2148 2056 2066 1912 1826 1867 1960 2142 2360 2416 2573 2753 2654 2757 2844 2849 2981 3035 3012
0 0 0 0 0 0 0 0 0 0 0 0 0 0 0 0 0 0 0 0 0 0 0 0 0 0 0 0 0 198 788 1071 1214 1205 1173 1097 1257 1161 1255 1280 1365 1400 1449 1527 1557 1540 1531 1590 1613 1721 1786 1764 1763 1869 1929 1993 2024 2180 2294 2356 2313 2233 2279 2383 2502 2441 2330 2246 2196 2106 2115 2064 2143 2075 2466 2693 2750 2733 2870 2806 2766 2767 2842 3071 3122 3014
0 0 0 0 0 0 0 0 0 0 0 0 0 0 0 0 0 0 0 0 0 0 0 0 0 0 0 26 0 293 282 927 1133 1267 1259 1229 1207 1186 1176 1212 1276 1326 1432 1480 1500 1502 1534 1552 1592 1648 1696 1698 1738 1770 1880 1966 2070 2197 2348 2392 2374 2375 2408 2500 2551 2433 2424 2455 2400 2284 2238 2316 2295 2338 2417 2589 2481 2638 2676 2702 2820 2972 2886 3239 3368 3319
0 0 0 0 0 0 0 0 0 0 0 0 0 0 0 0 0 0 0 0 0 0 0 0 0 0 0 0 0 346 22 259 702 1188 1288 1313 1266 1204 1162 1177 1182 1263 1369 1421 1460 1504 1534 1532 1551 1537 1592 1650 1671 1730 1866 1940 1982 2121 2271 2348 2400 2398 2390 2443 2552 2571 2599 2530 2570 2421 2368 2335 2356 2288 2368 2296 2459 2564 2762 2704 3001 3140 3153 3144 3377 3470
0 0 0 0 0 0 0 0 0 0 0 0 0 0 0 0 0 0 0 0 0 0 0 0 0 0 0 0 0 12 84 154 296 967 1259 1342 1330 1224 1217 1179 1159 1191 1268 1352 1401 1421 1509 1536 1542 1512 1513 1579 1592 1606 1690 1826 1855 1938 2113 2272 2342 2373 2372 2406 2481 2507 2582 2511 2529 2502 2486 2431 2423 2442 2372 2406 2502 2553 2804 2698 2926 3103 3228 3222 3284 3297
0 0 0 0 0 0 0 0 0 0 0 0 0 0 0 0 0 0 0 0 0 0 0 0 0 0 0 0 0 0 79 91 114 196 804 1045 1240 1257 1242 1158 1143 1186 1259 1269 1308 1360 1396 1495 1494 1460 1458 1454 1506 1539 1620 1656 1686 1816 1944 2094 2236 2336 2368 2374 2400 2493 2477 2450 2494 2508 2519 2501 2462 2522 2340 2420 2403 2536 2662 2682 2889 3077 3208 3313 3343 3490
0 0 0 0 0 0 0 0 0 0 0 0 0 0 0 0 0 0 0 0 0 0 0 0 0 0 0 0 0 0 1 35 119 19 230 737 1018 1214 1158 1134 1134 1148 1200 1253 1304 1370 1376 1409 1432 1438 1498 1533 1544 1642 1621 1543 1574 1715 1927 2087 2189 2328 2320 2282 2256 2378 2454 2482 2476 2541 2524 2520 2538 2540 2469 2472 2465 2600 2581 2647 2816 3157 3140 3315 3359 3431
0 0 0 0 0 0 0 0 0 0 0 0 0 0 0 0 0 0 0 0 0 0 0 0 0 0 0 0 0 0 0 0 76 175 115 461 924 1168 1196 1138 1044 1123 1185 1217 1216 1287 1384 1454 1441 1408 1442 1527 1589 1545 1532 1516 1554 1667 1798 2061 2072 2239 2365 2316 2273 2314 2427 2529 2574 2616 2580 2510 2537 2504 2411 2409 2371 2505 2513 2704 2752 2762 2734 3236 3154 3219
0 0 0 0 0 0 0 0 0 0 0 0 0 0 0 0 0 0 0 0 0 0 0 0 0 0 0 0 0 0 0 0 13 86 259 377 696 1187 1084 1041 969 1067 1140 1187 1222 1240 1300 1463 1497 1399 1386 1464 1474 1386 1334 1464 1600 1806 1954 2101 2160 2254 2394 2298 2283 2272 2360 2491 2516 2589 2590 2575 2503 2354 2310 2319 2266 2379 2429 2418 2522 2764 2677 2952 3110 3286
0 0 0 0 0 0 0 0 0 0 0 0 0 0 0 0 0 0 0 0 0 0 0 0 0 0 0 0 0 0 0 0 2 18 84 268 330 445 724 852 864 866 975 1090 1170 1183 1272 1472 1517 1411 1391 1311 1327 1394 1279 1376 1709 1801 1818 2116 2206 2210 2338 2261 2200 2231 2294 2383 2456 2527 2551 2504 2462 2338 2321 2302 2342 2453 2400 2448 2434 2735 2842 2844 3093 3407
0 0 0 0 0 0 0 0 0 0 0 0 0 0 0 0 0 0 0 0 0 0 0 0 0 0 0 0 0 0 0 0 0 0 0 5 52 236 347 532 720 761 868 976 1030 1092 1228 1302 1479 1366 1348 1248 1220 1244 1287 1497 1742 1707 1942 1983 2104 2176 2232 2227 2230 2210 2212 2349 2411 2465 2472 2449 2407 2333 2254 2195 2196 1913 2171 2344 2441 2509 2570 2697 2989 3195
0 0 0 0 0 0 0 0 0 0 0 0 0 0 0 0 0 0 0 0 0 0 0 0 0 0 0 0 4 0 0 0 0 0 0 1 26 53 75 299 514 607 716 850 1004 1128 1224 1194 1247 1214 1205 1165 1142 1145 1243 1556 1562 1812 1966 1748 1962 2184 2176 2161 2142 2050 2144 2304 2368 2414 2403 2405 2396 2233 2085 2086 2115 2036 2176 2305 2316 2242 2426 2508 2580 2750
0 0 0 0 0 0 0 0 0 0 0 0 0 0 0 0 0 0 0 0 0 0 0 0 0 0 0 0 0 0 0 0 0 0 0 0 0 0 8 81 266 428 553 738 896 1058 1004 1039 1112 1122 1028 1028 1073 1192 1404 1514 1375 1525 1585 1718 1717 1934 1970 2066 1907 1917 2080 2168 2196 2258 2343 2366 2376 2237 2187 2139 2212 2234 2200 1990 2104 2093 2209 2328 2448 2752
0 0 0 0 0 0 0 0 0 0 0 0 0 0 0 0 0 0 0 0 0 0 0 0 0 0 0 0 0 0 0 0 0 0 0 0 0 0 7 3 48 196 364 550 640 738 885 924 906 920 948 916 965 1082 1151 1126 1146 1131 1286 1575 1635 1684 1966 1961 1918 1944 2056 2070 2042 2110 2292 2356 2372 2364 2298 2264 2333 2226 2100 2035 1992 2052 2010 2284 2350 2454
0 0 0 0 0 0 0 0 0 0 0 0 0 0 0 0 0 0 0 0 0 0 0 0 0 0 0 0 0 0 0 0 2 2 14 4 0 0 3 14 18 43 118 257 420 603 734 794 794 800 845 845 841 943 948 925 1032 1048 1110 1335 1461 1702 1822 1833 1825 1878 2081 1936 1978 2188 2306 2283 2337 2316 2228 2254 2275 2202 2121 2120 2130 2057 2087 2330 2292 2318
0 0 0 0 0 0 0 0 0 0 0 0 0 0 0 0 0 0 0 0 0 0 0 0 0 0 0 0 0 0 0 0 2 0 0 0 0 4 0 0 28 36 44 102 172 370 530 690 728 718 760 788 737 768 795 787 900 973 1010 1131 1299 1398 1562 1586 1738 1974 1974 1972 2003 2096 2176 2065 2081 2155 2144 2104 2122 2212 2163 2191 2207 2184 2226 2327 2390 2406
0 0 0 0 0 0 0 0 0 0 0 0 0 0 0 0 0 0 0 0 0 0 0 0 0 0 0 0 0 0 0 0 0 0 0 0 0 0 0 1 11 115 36 0 16 37 182 470 664 698 838 897 778 798 717 732 778 892 964 1044 1177 1252 1387 1431 1531 1759 2120 2116 2192 2171 2075 2046 2139 2176 2182 2085 2039 2008 1998 2095 2150 2150 2275 2138 2108 2398
0 0 0 0 0 0 0 0 0 0 0 0 0 0 0 0 0 0 0 0 0 0 0 0 0 0 0 14 0 0 9 0 0 0 49 0 0 0 2 1 26 186 269 14 0 0 29 254 632 845 1107 1275 1106 1061 771 774 850 832 902 994 1064 1168 1254 1335 1450 1725 2076 2055 2043 2078 2148 2227 2190 2049 1989 1966 1959 1905 1861 1882 2031 2174 2168 2068 2010 2305
0 0 0 0 0 0 0 0 0 0 0 0 0 0 0 0 0 0 0 0 0 0 0 0 0 0 0 60 0 0 0 0 0 0 0 0 18 12 0 24 97 452 607 215 122 8 14 15 425 714 962 1088 1165 1000 969 957 912 818 905 950 969 1117 1191 1336 1438 1565 1790 1869 1872 1930 2097 2082 2088 2070 2011 1918 1880 1901 1841 1836 1880 2021 2030 2052 2017 2216
0 0 0 0 0 0 0 0 0 0 0 0 0 0 0 0 0 0 0 0 0 0 0 0 0 0 0 0 0 0 0 0 0 0 0 0 0 4 30 22 255 295 861 832 785 351 74 168 538 600 805 1015 1261 1036 1178 1130 883 792 902 1020 993 1062 1202 1284 1374 1459 1667 1703 1740 1969 2060 2136 2006 2011 2005 1922 1899 1896 1880 1884 1906 2011 2062 2063 2096 2196
0 0 0 0 0 0 0 0 0 0 0 0 0 0 0 0 0 0 0 0 0 0 0 0 0 0 0 0 0 0 0 0 0 23 0 0 0 0 12 80 172 591 744 440 1011 762 828 742 482 498 734 892 771 996 1071 928 883 828 1135 1151 988 1034 1168 1316 1428 1632 1591 1649 1659 2003 2076 2096 2077 2111 2027 2080 1981 2004 2000 1946 1956 1998 2103 2080 2104 2143
0 0 0 0 0 0 0 0 0 0 0 0 0 0 0 0 0 0 0 0 0 0 0 0 2 0 0 0 0 93 46 84 42 90 23 22 45 2 4 256 32 9 86 367 582 911 976 599 548 606 692 804 832 1081 879 960 911 981 1208 1212 1098 1045 1185 1390 1618 1768 1778 1742 1781 2035 2118 2095 2208 2287 2277 2190 2260 2230 2141 2064 2048 2143 2214 2231 2164 2153
0 0 0 0 0 0 0 0 0 0 0 0 0 0 0 0 0 0 0 0 0 0 0 11 22 0 0 0 0 1 112 107 0 10 40 0 0 10 100 17 17 38 320 280 946 1256 1111 941 985 899 866 852 560 712 826 946 959 1217 1381 1176 1240 1100 1192 1626 1782 1948 1870 1936 2041 2251 2315 2260 2334 2531 2504 2457 2523 2484 2385 2276 2284 2316 2372 2415 2302 2205
0 0 0 0 0 0 0 0 0 0 0 0 0 0 0 0 0 0 0 0 0 0 0 0 25 0 0 0 0 0 0 0 0 56 0 0 0 50 38 124 0 0 0 102 510 668 1267 1160 1180 1249 1012 863 592 804 677 968 1061 1047 1054 1190 1349 1287 1269 1512 1972 2187 1863 1950 2300 2602 2490 2577 2576 2756 2807 2637 2752 2792 2689 2472 2462 2386 2514 2636 2438 2400
0 0 0 0 0 0 0 0 0 0 0 0 0 0 0 0 0 0 0 0 0 0 0 0 0 0 0 0 0 0 50 0 0 0 0 0 0 0 2 0 287 224 90 194 564 417 880 1140 1210 1344 1210 1219 898 879 802 912 902 1043 887 994 1060 1379 1362 1545 2120 1938 1914 2058 2322 2451 2565 2708 2711 2808 2792 2810 2838 2805 2832 2606 2620 2641 2770 2748 2652 2488
0 0 0 0 0 0 0 0 0 0 0 0 0 0 0 0 0 0 0 0 0 0 0 0 0 0 0 0 0 0 0 0 0 0 0 0 0 2 0 52 192 444 582 258 391 237 480 636 1021 1226 1108 778 753 786 781 803 914 912 806 924 1044 1181 1309 1429 1622 1678 2166 2421 2678 2758 2744 2577 2823 2823 2836 2830 2833 2931 2886 2740 2690 2707 2793 2820 2765 2711
0 0 0 0 0 0 0 0 0 0 0 0 0 0 0 0 0 0 0 0 0 0 0 0 0 0 0 0 0 0 0 0 0 0 0 0 0 0 4 22 138 319 454 571 284 367 100 98 423 1175 948 647 685 626 544 683 653 938 1009 1112 1208 1230 1252 1412 1619 2063 2360 2436 2505 2776 2879 2875 2989 2902 2928 2908 2820 2907 2911 2897 2885 2927 2965 2911 2917 2908
0 0 0 0 0 0 0 0 0 0 0 0 0 0 0 0 0 0 0 0 0 0 0 0 0 0 0 0 0 0 0 0 0 0 0 0 4 223 0 47 90 144 204 170 88 61 84 160 166 232 675 1039 810 602 494 499 565 941 907 1063 1316 1322 1547 1806 1783 2166 2188 2602 2878 2952 2983 3058 2934 2935 3010 2989 2940 2958 2961 2926 2920 2859 2835 2838 2910 2956
0 0 0 0 0 0 0 0 0 0 0 0 0 0 0 0 0 0 0 0 0 0 0 0 0 0 0 0 0 0 0 0 268 610 18 102 112 40 410 481 1344 1346 1469 1657 1490 1082 804 525 434 451 546 525 514 518 542 576 595 755 816 1073 1278 1558 1849 2009 2104 2236 2470 2726 2694 2874 3080 3138 3090 3106 3128 3158 3085 3019 2937 2916 2916 2907 2849 2842 2926 2950
0 0 0 0 0 0 0 0 0 0 0 0 0 0 0 0 0 0 0 0 0 0 0 0 0 0 0 0 0 0 24 724 624 1771 1878 1712 1748 2077 1869 1876 1976 2015 1996 2242 2093 1966 1741 1085 632 380 430 460 526 543 576 604 498 485 563 740 1092 1320 1564 2057 2291 2167 2392 2791 2822 2942 3083 3091 3190 3159 3184 3148 3127 3066 2999 2992 3034 3021 2989 2932 2978 2931
0 0 0 0 0 0 0 0 0 0 0 0 0 0 0 0 0 0 0 0 0 0 0 14 49 0 0 0 0 0 40 95 205 631 1422 1536 1675 1591 1662 1901 1790 1984 1918 2002 2000 2009 2071 1957 1358 718 506 566 405 417 506 480 505 516 584 740 952 1607 1558 1799 2212 2314 2713 2598 2700 2916 3067 3137 3206 3248 3176 3170 3148 3113 3084 3115 3161 3147 3085 3018 3023 3018
0 0 0 0 0 0 0 0 0 0 0 1 0 0 0 0 0 0 0 0 0 0 0 0 7 115 420 432 0 0 0 0 0 0 1032 1387 1392 1396 1386 1334 1378 1506 1707 1761 1948 1999 2272 2442 2390 1720 568 396 580 452 599 636 694 784 1020 1116 1290 1558 1430 1776 2375 2780 2904 2873 3184 3263 3239 3258 3074 3295 3238 3254 3215 3213 3168 3232 3247 3240 3062 2980 2927 2929
0 0 0 0 0 0 0 0 0 0 0 46 3 0 0 0 0 0 0 0 0 0 0 0 0 42 286 728 800 0 0 0 0 0 1720 1622 1428 1244 1392 1486 1467 1542 1714 1818 1940 2164 2279 2523 2597 2414 1005 645 626 789 976 858 869 1040 1598 1759 1169 1412 1822 2389 2772 2894 2876 2964 3108 3269 3237 3134 3013 2833 3331 3354 3312 3233 3282 3416 3447 3267 3239 3095 3095 3023
0 0 0 0 0 0 0 0 0 0 0 0 0 0 0 2 0 0 0 5 0 0 0 0 0 6 233 600 679 124 0 0 0 0 1611 1554 1231 1112 1156 1466 1716 1731 1890 1966 2120 2110 2366 2684 2396 1581 940 725 1196 1344 1352 995 1310 1464 1974 1691 1379 1588 2216 2483 2328 2968 2875 2801 3118 3052 3370 3396 3226 3076 3099 3163 3306 3344 3436 3436 3270 3323 3162 2968 2960 3038
0 0 0 0 0 0 0 0 0 0 0 0 0 17 16 0 0 0 0 18 0 0 0 0 0 0 214 426 536 91 0 518 1255 1058 1182 1244 1015 954 1164 1298 1804 2000 2218 2177 1977 1990 2515 2518 2710 2527 2351 2702 2399 1542 1183 1132 1675 2172 2213 2338 2148 2028 1914 2315 2785 3121 3109 3131 2884 3158 3398 3341 3341 3130 3190 3295 3407 3460 3486 3564 3372 3204 3102 2948 2882 2940
1 0 0 0 0 0 0 0 0 0 8 0 32 19 20 0 0 0 0 0 0 0 0 0 0 0 38 321 446 301 738 856 940 938 844 933 1055 768 1455 1718 2016 2339 2618 2470 2094 1918 2430 2305 2400 2382 2277 2206 2125 1721 1697 2080 2413 2843 2865 2680 2512 2568 2314 2906 3206 3159 3132 3284 3252 3211 3405 3500 3479 3450 3372 3497 3614 3620 3517 3345 3210 3195 3264 3050 3100 3018
9 2 0 0 0 0 0 0 0 0 0 0 55 15 60 0 15 31 0 0 0 0 0 0 0 0 7 80 378 231 565 573 581 780 868 889 933 1128 1288 1549 1794 2248 2789 2874 2690 2394 2101 2164 1915 1803 1808 1873 2010 2265 2302 1954 2596 2757 2971 2942 3026 2806 2854 3106 3192 3376 3478 3520 3335 3503 3546 3604 3674 3334 3298 3432 3464 3354 3367 3476 3415 3366 3336 3265 3222 3182
2 0 4 4 0 0 0 0 0 20 256 190 15 20 54 21 3 0 0 0 0 0 0 0 2 91 194 46 298 413 456 500 688 1065 1106 982 1013 1035 1128 1150 1163 1390 1827 2298 2762 3012 2908 2668 2384 2309 2298 2092 1732 2021 2594 3287 2776 2928 2927 3548 3092 3019 2837 3188 3548 3630 3546 3485 3488 3518 3549 3721 3295 3215 3259 3444 3551 3576 3638 3695 3546 3456 3426 3509 3380 3208
45 14 10 3 46 33 29 103 106 31 13 98 126 173 68 19 2 0 0 0 0 0 0 0 73 134 116 273 349 351 144 672 1064 1147 1182 1084 982 1002 945 979 995 964 1197 1545 1958 2426 2842 3177 3236 3042 2861 2653 2542 2308 1991 2468 3504 3320 3133 2730 3165 3964 3034 3174 3494 3410 3378 3137 3251 3470 3601 3512 3412 3488 3511 3577 3620 3632 3710 3742 3681 3589 3614 3581 3401 3351
43 14 16 3 8 69 32 0 0 0 2 78 156 230 81 13 0 23 120 210 245 351 232 176 560 421 257 324 349 455 652 916 1176 1118 976 990 914 838 852 778 805 726 720 1010 1284 1557 1710 2068 2467 2830 3168 3366 3360 3170 2958 2644 2218 2114 2109 2248 2608 3540 3886 3470 3334 3479 3518 3532 3542 3431 3328 3569 3624 3703 3604 3670 3526 3612 3761 3608 3610 3566 3666 3620 3559 3490
0 1 24 6 4 1 0 216 37 32 116 157 205 126 106 19 4 50 209 244 335 310 461 562 804 804 792 866 931 1006 1014 1017 972 892 716 624 615 330 402 495 536 545 636 729 920 1133 1200 1205 1387 1474 1641 2024 2283 2819 3221 3401 3379 3074 2916 2998 2900 3060 3669 3886 3374 3496 3504 3464 3285 3372 3352 3336 3213 3284 3324 3536 3528 3591 3699 3650 3747 3682 3767 3752 3614 3481
0 20 0 2 8 4 0 6 0 0 44 100 53 100 82 21 0 10 173 204 260 316 381 480 758 956 1018 1062 1030 1012 829 704 421 6 41 94 212 390 416 483 538 670 695 882 915 1004 1153 1323 1384 1405 1462 1595 1949 1964 2054 2161 2321 2723 3135 3392 3522 3475 3559 4014 4146 3537 3452 3444 3532 3399 3310 3328 3051 3069 3312 3648 3744 3685 3736 3766 3676 3673 3672 3568 3579 3496
5 0 2 0 1 4 1 0 0 0 0 42 77 31 116 53 39 48 82 188 275 334 365 478 599 748 782 806 650 612 533 454 534 459 510 66 134 267 400 406 522 648 751 881 1030 1053 1129 1102 1061 1054 1170 1334 1518 1528 1512 1504 1557 1767 2019 2153 2376 2893 3423 3608 3568 3688 3930 4010 3780 3514 3086 3068 3007 3214 3258 3567 3695 3643 3837 3861 3661 3603 3637 3614 3737 3663
2 2 3 9 2 8 3 0 145 72 112 109 54 115 142 108 159 99 43 116 216 74 375 420 450 453 357 494 517 646 684 632 623 660 640 644 612 667 672 661 747 839 862 844 923 964 1068 1148 1122 1098 1091 1138 1278 1321 1250 1335 1326 1225 1281 1429 1708 2214 2459 2707 3083 3294 3399 3470 3516 3509 3504 3467 3373 3334 3281 3128 3169 3023 3158 2981 2914 3406 3568 3543 3286 3130
5 3 15 2 28 2 0 2 95 10 18 2 0 0 21 188 248 298 64 42 44 11 178 219 192 314 325 449 443 563 635 703 699 689 665 663 672 711 742 799 879 963 860 808 825 838 861 900 954 988 1025 1156 1128 1151 1238 1197 1120 1016 969 995 1180 1490 1738 2100 2381 2592 2717 2934 3070 3239 3329 3412 3449 3481 3450 3413 3406 3332 3237 3144 3014 2928 2854 2734 2793 2825
Wind_Speed
nan nan nan nan nan nan nan nan nan nan nan nan nan nan nan nan nan nan nan nan nan nan nan nan nan nan nan nan 15 12 11 14 13 12 12 14 16 19 21 23 22 21 21 16 13 10 8 6 2 1 4 5 4 4 3 2 3 2 1 1 1 1 1 3 4 5 6 6 6 6 6 6 6 7 7 7 6 6 7 8 8 8 8 8 7 7
nan nan nan nan nan nan nan nan nan nan nan nan nan nan nan nan nan nan nan nan nan nan nan nan nan nan nan nan 18 11 9 13 13 12 13 14 15 16 20 22 22 19 12 13 11 10 8 4 3 0 4 4 4 4 3 4 4 3 3 2 2 2 1 2 2 4 4 4 4 4 4 5 5 5 6 6 6 7 8 7 8 8 8 7 6 6
nan nan nan nan nan nan nan nan nan nan nan nan nan nan nan nan nan nan nan nan nan nan nan nan nan nan nan nan nan 10 10 13 12 11 12 12 14 14 15 18 18 16 16 14 13 12 8 8 5 2 4 5 6 5 5 5 4 4 3 3 2 2 1 2 1 2 3 3 3 3 3 3 4 5 5 6 7 7 8 8 8 8 7 6 6 7
nan nan nan nan nan nan nan nan nan nan nan nan nan nan nan nan nan nan nan nan nan nan nan nan nan nan nan nan nan 13 12 12 11 12 12 13 14 16 16 15 17 19 16 17 16 15 11 9 6 3 4 5 5 6 6 5 7 5 4 4 3 2 2 2 2 1 1 1 1 2 4 3 4 5 5 6 8 7 8 8 7 6 5 5 6 6
nan nan nan nan nan nan nan nan nan nan nan nan nan nan nan nan nan nan nan nan nan nan nan nan nan nan nan nan 22 18 15 16 13 11 11 12 16 18 17 14 15 16 15 13 13 13 12 10 8 4 4 5 4 5 6 7 8 6 6 5 3 3 3 3 2 2 1 0 1 2 4 5 6 7 7 6 7 6 6 6 5 5 3 4 5 5
nan nan nan nan nan nan nan nan nan nan nan nan nan nan nan nan nan nan nan nan nan nan nan nan nan nan nan nan 27 26 18 16 14 11 13 11 11 13 17 19 16 14 12 13 15 14 12 10 6 4 2 3 3 4 5 6 7 6 6 5 3 4 3 3 3 3 1 1 1 1 3 3 4 4 4 4 4 4 4 4 4 2 2 2 3 5
nan nan nan nan nan nan nan nan nan nan nan nan nan nan nan nan nan nan nan nan nan nan nan nan nan nan nan nan nan 26 20 16 16 15 16 11 11 13 15 18 17 15 12 11 11 11 10 10 9 7 5 5 4 4 3 5 6 6 6 5 3 2 2 1 2 4 3 4 3 4 3 3 2 2 3 3 3 4 4 4 2 3 2 1 3 5
nan nan nan nan nan nan nan nan nan nan nan nan nan nan nan nan nan nan nan nan nan nan nan nan nan nan nan nan nan 27 23 19 16 16 16 13 12 12 13 16 18 16 14 10 12 13 11 9 10 9 8 5 5 2 2 4 5 6 5 3 3 2 2 1 2 6 6 4 4 5 5 2 2 3 3 3 4 5 6 5 3 4 3 2 3 4
nan nan nan nan nan nan nan nan nan nan nan nan nan nan nan nan nan nan nan nan nan nan nan nan nan nan nan nan nan 31 28 22 19 17 15 14 13 11 13 14 15 16 14 11 10 13 12 11 10 8 6 6 5 4 4 3 3 4 4 4 3 3 2 1 4 5 7 5 6 6 5 4 1 1 3 5 6 7 6 5 5 5 5 5 5 6
nan nan nan nan nan nan nan nan nan nan nan nan nan nan nan nan nan nan nan nan nan nan nan nan nan nan nan nan nan 36 nan 21 17 16 16 15 12 10 11 11 14 15 14 13 11 10 11 10 8 7 5 4 5 6 6 5 4 4 4 4 4 5 3 2 4 4 6 7 6 6 7 7 4 2 2 4 6 6 7 5 6 6 6 6 6 7
nan nan nan nan nan nan nan nan nan nan nan nan nan nan nan nan nan nan nan nan nan nan nan nan nan nan nan nan nan nan nan 18 19 20 19 17 14 12 11 9 11 13 13 12 10 9 9 9 7 5 5 5 5 5 5 4 4 4 4 4 4 5 3 2 3 4 6 6 6 6 7 8 7 6 5 6 5 6 7 6 6 7 7 7 7 7
nan nan nan nan nan nan nan nan nan nan nan nan nan nan nan nan nan nan nan nan nan nan nan nan nan nan nan nan nan nan nan nan 17 18 17 15 13 11 9 9 10 11 11 11 10 9 7 7 8 6 7 6 5 5 5 4 4 4 4 4 5 5 4 3 3 4 5 5 6 5 6 7 7 7 6 6 6 6 6 7 7 8 9 8 8 8
nan nan nan nan nan nan nan nan nan nan nan nan nan nan nan nan nan nan nan nan nan nan nan nan nan nan nan nan nan nan nan nan 17 nan 18 16 14 11 10 10 9 8 9 9 9 8 5 6 8 9 8 6 5 4 5 5 4 3 2 2 4 5 4 3 3 4 6 6 6 5 6 6 6 6 6 7 7 8 7 7 8 10 10 10 9 9
nan nan nan nan nan nan nan nan nan nan nan nan nan nan nan nan nan nan nan nan nan nan nan nan nan nan nan nan nan nan nan nan nan 16 18 17 15 12 11 9 7 6 7 8 8 8 7 6 6 8 7 5 3 4 3 4 4 2 0 1 3 4 2 1 2 3 5 5 4 4 5 6 6 6 6 6 7 8 8 8 8 9 10 11 10 9
nan nan nan nan nan nan nan nan nan nan nan nan nan nan nan nan nan nan nan nan nan nan nan nan nan nan nan nan nan nan nan nan nan nan 17 17 17 15 13 10 5 4 5 7 7 8 8 6 4 4 4 3 3 5 5 4 4 3 3 4 4 2 1 2 2 1 3 2 3 4 5 7 7 7 7 6 8 9 10 9 9 10 11 11 10 10
nan nan nan nan nan nan nan nan nan nan nan nan nan nan nan nan nan nan nan nan nan nan nan nan nan nan nan nan nan nan nan nan nan nan nan 21 22 22 21 16 10 5 2 2 4 6 8 5 2 1 1 2 2 4 4 6 4 5 5 6 6 6 4 4 3 2 3 3 5 6 7 7 8 8 8 8 10 10 11 12 11 11 12 12 11 10
nan nan nan nan nan nan nan nan nan nan nan nan nan nan nan nan nan nan nan nan nan nan nan nan nan nan nan nan nan nan nan nan nan nan nan nan nan 22 20 16 11 7 4 4 2 4 5 2 3 2 1 1 2 3 5 5 6 7 6 6 7 6 6 6 6 5 5 6 7 8 9 10 10 10 10 9 9 9 11 12 13 13 13 13 13 12
nan nan nan nan nan nan nan nan nan nan nan nan nan nan nan nan nan nan nan nan nan nan nan nan nan nan nan nan nan nan nan nan nan nan nan nan nan nan nan 15 12 8 5 4 5 4 3 3 1 1 3 2 4 6 6 7 8 7 8 8 8 8 8 7 8 7 7 8 8 9 10 11 11 11 10 10 11 13 13 13 14 14 15 15 14 13
nan nan nan nan nan nan nan nan nan nan nan nan nan nan nan nan nan nan nan nan nan nan nan nan nan nan nan nan nan nan nan nan nan nan nan nan nan nan nan nan 11 10 11 7 1 3 4 6 6 4 4 4 5 6 7 10 11 10 9 8 9 10 9 9 8 8 9 9 9 10 10 12 12 13 13 13 15 16 15 13 14 14 15 17 16 15
nan nan nan nan nan nan nan nan nan nan nan nan nan nan nan nan nan nan nan nan nan nan nan nan nan nan nan nan nan nan nan nan nan nan nan nan nan nan nan nan nan 13 10 6 3 1 3 7 11 12 11 10 9 9 8 10 11 10 10 10 10 9 9 9 9 9 10 10 10 10 12 13 14 15 16 16 17 16 15 15 15 15 16 18 17 16
nan nan nan nan nan nan nan nan nan nan nan nan nan nan nan nan nan nan nan nan nan nan nan nan nan nan nan nan nan nan nan nan nan nan nan nan nan nan nan nan nan nan 11 6 2 2 2 5 9 12 13 13 12 11 10 11 11 10 10 10 11 13 13 11 9 10 10 10 10 11 13 14 15 15 16 16 16 16 15 17 18 17 17 20 18 17
nan nan nan nan nan nan nan nan nan nan nan nan nan nan nan nan nan nan nan nan nan nan nan nan nan nan nan nan nan nan nan nan nan nan nan nan nan nan nan nan nan nan nan 6 3 4 4 0 5 9 11 12 14 14 13 11 12 11 11 9 11 11 11 9 8 8 11 12 11 12 13 14 15 16 16 16 16 16 17 18 19 19 20 19 19 18
nan nan nan nan nan nan nan nan nan nan nan nan nan nan nan nan nan nan nan nan nan nan nan nan nan nan nan nan nan nan nan nan nan nan nan nan nan nan nan nan nan 18 nan nan nan nan 12 9 4 8 13 16 15 15 15 13 12 12 11 11 12 12 10 8 7 9 13 13 13 12 13 14 15 16 17 16 16 15 16 17 19 21 20 19 19 18
nan nan nan nan nan nan nan nan nan nan nan nan nan nan nan nan nan nan nan nan nan nan nan nan nan nan nan nan nan nan nan nan nan nan nan nan nan nan nan nan nan 21 19 nan nan nan nan 15 12 11 14 18 16 16 16 15 14 12 12 12 13 12 12 9 8 11 14 13 12 13 14 14 14 16 16 15 14 14 14 16 18 20 19 20 20 20
nan nan nan nan nan nan nan nan nan nan nan nan nan nan nan nan nan nan nan nan nan nan nan nan nan nan nan nan nan nan nan nan nan nan nan nan nan nan nan nan nan 25 25 20 19 nan nan nan 13 10 14 18 18 17 17 17 17 15 13 13 12 11 12 11 10 11 13 14 13 13 14 15 15 15 17 16 14 14 14 14 16 18 19 20 19 20
nan nan nan nan nan nan nan nan nan nan nan nan nan nan nan nan nan nan nan nan nan nan nan nan nan nan nan nan nan nan nan nan nan nan nan nan nan nan nan nan 28 28 26 22 23 24 nan 18 17 14 16 20 20 17 18 17 17 15 14 12 12 12 14 13 12 11 13 14 14 13 15 15 15 16 18 17 16 16 16 15 15 16 19 20 20 21
nan nan nan nan nan nan nan nan nan nan nan nan nan nan nan nan nan nan nan nan nan nan nan nan nan nan nan nan nan nan nan nan nan nan nan nan nan nan nan nan 27 29 28 25 25 26 28 26 18 14 16 20 19 18 19 19 17 15 15 11 10 12 15 16 15 14 14 14 14 14 15 16 15 15 17 17 17 16 17 18 18 17 17 18 19 21
nan nan nan nan nan nan nan nan nan nan nan nan nan nan nan nan nan nan nan nan nan nan nan nan nan nan nan nan nan nan nan nan nan nan nan nan nan nan nan 20 nan nan nan 27 27 26 24 22 19 18 18 21 22 20 18 19 19 17 16 12 11 13 16 18 17 16 15 14 13 14 16 15 14 14 15 16 16 17 19 21 21 21 20 20 20 18
nan nan nan nan nan nan nan nan nan nan nan nan nan nan nan nan nan nan nan nan nan nan nan nan nan nan nan nan nan nan 14 16 nan nan nan nan nan nan nan nan nan nan 24 25 26 27 27 25 23 21 20 21 24 22 17 18 19 20 20 13 12 13 14 18 20 19 17 14 13 14 14 13 12 12 14 16 16 17 19 21 22 23 23 23 23 20
nan nan nan nan nan nan nan nan nan nan nan nan nan nan nan nan nan nan nan nan nan nan nan nan nan nan nan nan nan nan nan nan nan nan nan nan nan nan nan 21 nan nan nan 19 21 22 23 22 22 21 19 19 22 24 19 18 17 17 15 12 13 12 12 17 19 19 14 12 12 13 15 15 13 13 15 16 16 18 20 21 22 23 24 24 24 22
nan nan nan nan nan nan nan nan nan nan nan nan nan nan nan nan nan nan nan nan nan nan nan nan nan nan nan nan nan nan nan nan nan nan nan nan nan nan nan nan 22 20 nan 16 19 21 23 23 21 21 20 19 20 24 21 16 15 14 10 10 11 11 12 15 16 16 13 9 9 12 14 14 12 12 14 16 16 17 19 21 21 21 22 23 23 23
nan nan nan nan nan nan nan nan nan nan nan nan nan nan nan nan nan nan nan nan nan nan nan nan nan nan nan nan nan nan nan nan nan nan nan nan nan nan nan nan 21 20 19 19 22 23 23 21 20 19 17 16 17 21 19 15 16 14 9 10 11 12 14 14 14 14 12 8 12 15 14 13 14 13 14 15 16 17 18 19 20 20 20 21 23 22
nan nan nan nan nan nan nan nan nan nan nan nan nan nan nan nan nan nan nan nan nan nan nan nan nan nan nan nan nan nan nan nan nan nan nan nan nan nan nan nan 22 21 21 24 23 22 nan nan 19 17 15 14 16 16 15 15 14 12 9 11 12 15 17 16 16 14 11 11 14 13 14 15 15 14 13 14 15 15 16 18 19 20 20 21 21 20
nan nan nan nan nan nan nan nan nan nan nan nan nan nan nan nan nan nan nan nan nan nan nan nan nan nan nan nan nan nan nan nan nan nan nan nan nan 28 nan nan nan 24 26 26 nan nan nan 23 21 19 15 15 13 10 11 13 11 8 9 12 18 17 16 16 15 15 13 14 14 14 14 16 16 14 13 14 15 15 17 18 18 20 20 20 20 19
nan nan nan nan nan nan nan nan nan nan nan nan nan nan nan nan nan nan nan nan nan nan nan nan nan nan nan nan nan nan nan nan 32 37 nan 31 30 nan 27 28 28 27 27 27 25 23 22 21 20 19 18 16 14 14 13 11 9 11 15 19 19 18 18 18 18 18 18 18 16 16 16 16 16 16 16 17 17 17 17 18 17 19 21 22 22 20
nan nan nan nan nan nan nan nan nan nan nan nan nan nan nan nan nan nan nan nan nan nan nan nan nan nan nan nan nan nan nan 39 39 39 37 34 32 30 29 29 30 29 27 27 27 25 23 22 21 19 20 21 19 15 13 11 13 15 16 19 20 20 21 22 21 19 21 22 20 18 17 17 18 19 20 20 19 18 18 20 20 18 19 21 21 20
nan nan nan nan nan nan nan nan nan nan nan nan nan nan nan nan nan nan nan nan nan nan nan nan nan nan nan nan nan nan nan nan 37 35 35 33 31 30 30 31 32 30 30 28 27 26 26 24 22 21 22 20 18 17 15 15 17 17 20 22 22 23 23 23 23 20 21 22 21 20 21 23 24 23 22 21 21 20 20 21 21 19 19 19 21 22
nan nan nan nan nan nan nan nan nan nan nan nan nan nan nan nan nan nan nan nan nan nan nan nan nan 46 42 41 nan nan nan nan nan nan 35 34 33 32 32 32 32 32 31 31 31 29 28 27 26 23 22 20 18 18 21 21 22 24 25 25 24 25 23 23 22 20 20 21 24 25 27 26 24 24 23 24 23 23 22 23 24 24 24 21 22 22
nan nan nan nan nan nan nan nan nan nan nan nan nan nan nan nan nan nan nan nan nan nan nan nan nan nan 44 43 42 nan nan nan nan nan 41 41 38 36 35 35 34 34 34 35 34 33 33 32 30 29 26 22 20 22 24 24 24 25 25 24 22 24 25 24 23 21 18 19 25 28 27 26 24 23 26 25 24 24 24 24 26 27 29 26 25 26
nan nan nan nan nan nan nan nan nan nan nan nan nan nan nan nan nan nan nan nan nan nan nan nan nan nan 46 43 41 38 nan nan nan nan 46 45 43 42 38 38 37 36 36 37 37 36 35 35 34 34 31 26 25 27 26 26 27 25 25 23 22 22 22 23 23 23 22 23 26 29 30 30 30 30 28 25 27 27 25 27 30 32 33 31 29 29
nan nan nan nan nan nan nan nan nan nan nan nan nan nan nan nan nan nan nan nan nan nan nan nan nan nan 47 44 41 nan nan 45 46 46 46 46 45 44 41 40 39 37 37 39 40 38 39 42 42 42 41 38 36 32 28 28 30 30 29 29 27 21 18 23 31 30 28 29 29 30 30 32 33 30 26 26 28 28 28 30 30 31 33 32 33 32
nan nan nan nan nan nan nan nan nan nan nan nan nan nan nan nan nan nan nan nan nan nan nan nan nan nan nan 45 40 37 43 45 45 46 46 46 46 45 43 42 41 39 39 41 42 42 42 44 45 45 45 43 41 38 32 32 33 34 36 34 30 29 31 34 32 31 31 32 31 30 31 31 30 28 27 29 31 30 29 29 30 31 33 34 33 33
nan nan nan nan nan nan nan nan nan nan nan nan nan nan nan nan nan nan nan nan nan nan nan nan nan nan nan nan 43 40 43 44 45 46 47 47 47 47 46 45 43 41 41 42 44 44 43 45 47 48 48 46 45 42 40 36 36 38 40 38 38 36 36 36 34 33 33 33 32 32 33 32 31 30 29 30 31 30 29 32 33 34 35 36 35 33
nan nan nan nan nan nan nan nan nan nan 88 78 nan nan nan nan nan nan nan nan nan nan nan nan nan nan 50 nan 43 44 45 45 47 47 47 48 48 48 48 46 45 43 42 42 43 43 44 48 49 50 50 49 48 45 45 44 43 45 44 46 46 40 37 37 37 37 35 34 33 33 33 32 31 30 29 30 33 32 33 36 38 39 38 39 38 36
nan nan nan nan nan nan nan 89 88 nan nan nan 74 75 nan nan nan nan nan nan nan nan nan nan nan 53 50 49 47 47 47 48 47 48 50 50 50 50 49 49 48 46 45 44 42 42 43 47 50 52 53 51 52 52 51 49 48 49 49 46 44 43 40 39 39 38 35 34 33 34 35 34 32 32 32 32 35 36 36 38 42 42 40 41 40 41
nan nan nan nan nan nan nan nan nan nan nan nan 77 77 nan nan nan nan 71 71 73 71 66 62 59 54 50 51 49 50 50 48 47 49 52 53 52 51 50 50 50 49 47 45 43 41 42 45 49 53 56 57 57 57 56 54 52 53 49 48 47 45 43 41 39 37 35 35 36 36 36 36 35 34 34 34 35 36 37 38 40 41 42 42 44 44
nan nan nan nan nan nan nan 88 nan nan 79 77 76 76 75 nan nan nan 74 76 75 72 69 66 62 58 54 51 52 51 52 52 51 51 53 54 54 52 50 50 51 50 49 48 45 43 42 45 48 53 56 59 60 60 59 58 55 53 51 51 50 48 46 43 42 40 39 39 39 39 38 37 36 36 35 36 36 37 38 40 40 41 43 42 43 43
nan nan nan nan nan nan nan nan nan nan nan 81 nan 69 nan nan nan nan 77 78 74 71 69 68 67 66 59 54 53 52 54 56 56 nan nan nan 53 51 50 49 50 50 49 48 46 46 47 48 50 52 54 55 56 57 58 58 57 56 55 55 53 52 52 51 49 46 46 46 46 44 43 41 41 40 41 41 41 41 41 41 41 42 42 43 42 41
nan nan nan nan nan nan nan nan nan nan nan nan nan nan 65 nan nan nan nan 82 76 73 70 67 66 66 63 58 55 55 56 58 57 55 52 nan 51 51 50 50 49 50 50 50 50 49 49 49 50 51 53 53 52 52 54 56 57 57 58 58 58 56 56 56 57 56 56 54 51 50 49 47 47 45 43 43 43 42 41 41 40 40 39 39 43 44
nan nan nan nan nan nan nan nan 74 nan 74 78 nan 67 61 61 62 nan nan 82 73 nan 66 65 63 63 63 60 58 58 59 59 60 58 55 53 52 52 52 52 52 51 51 50 51 51 51 51 50 49 50 50 50 50 51 53 53 54 55 56 57 58 58 57 57 58 57 56 54 52 51 49 47 47 46 45 45 45 45 49 49 47 45 44 50 53
nan nan nan nan nan nan nan nan nan nan nan nan nan nan nan 61 60 63 nan nan nan nan 60 64 63 62 63 61 58 58 59 60 60 60 59 56 54 54 55 56 55 54 54 53 53 53 52 50 50 50 50 49 49 50 51 52 51 51 52 53 53 53 53 52 52 52 52 52 51 50 50 49 49 49 49 49 48 47 48 48 50 52 52 51 51 51
Wind_Direction
nan nan nan nan nan nan nan nan nan nan nan nan nan nan nan nan nan nan nan nan nan nan nan nan nan nan nan nan 148 135 132 120 115 89 76 60 48 40 32 25 22 19 18 12 12 17 25 28 3 161 162 152 140 128 102 67 39 23 6 308 34 85 74 178 163 148 154 153 148 146 132 130 132 127 122 124 125 126 132 132 131 129 125 116 104 91
nan nan nan nan nan nan nan nan nan nan nan nan nan nan nan nan nan nan nan nan nan nan nan nan nan nan nan nan 162 164 141 106 101 95 87 73 58 51 37 27 24 20 8 6 11 22 31 49 43 161 165 140 101 111 83 63 50 46 34 45 121 184 176 156 161 171 162 163 160 149 135 139 143 130 121 122 128 132 139 135 130 128 123 114 101 86
nan nan nan nan nan nan nan nan nan nan nan nan nan nan nan nan nan nan nan nan nan nan nan nan nan nan nan nan nan 162 119 112 97 89 84 83 78 74 57 36 23 11 9 5 11 15 29 38 51 109 144 136 113 102 90 80 68 66 68 88 114 147 174 137 134 168 149 165 152 139 164 143 150 134 137 138 144 147 141 139 134 130 126 111 98 75
nan nan nan nan nan nan nan nan nan nan nan nan nan nan nan nan nan nan nan nan nan nan nan nan nan nan nan nan nan 149 135 137 119 114 125 125 99 79 64 46 29 17 5 7 6 13 26 35 49 96 145 155 149 120 114 85 61 80 89 89 91 122 118 134 90 86 89 85 127 157 175 169 147 163 153 160 165 159 144 135 136 132 117 94 82 64
nan nan nan nan nan nan nan nan nan nan nan nan nan nan nan nan nan nan nan nan nan nan nan nan nan nan nan nan 182 172 166 158 148 143 137 136 121 115 117 97 59 30 14 8 7 15 27 32 37 63 155 169 142 108 98 81 74 109 75 86 91 131 103 122 92 41 33 100 136 161 169 167 159 160 161 171 156 150 148 139 127 107 97 83 68 60
nan nan nan nan nan nan nan nan nan nan nan nan nan nan nan nan nan nan nan nan nan nan nan nan nan nan nan nan 188 200 193 161 166 143 118 122 121 112 100 90 77 51 28 13 10 16 27 36 35 42 61 83 109 97 93 99 94 101 116 112 120 143 134 112 60 28 30 48 45 52 85 101 121 123 124 127 141 152 133 120 132 135 95 58 45 43
nan nan nan nan nan nan nan nan nan nan nan nan nan nan nan nan nan nan nan nan nan nan nan nan nan nan nan nan nan 203 197 174 174 142 124 123 113 102 99 97 88 64 40 26 20 14 23 35 35 38 43 49 74 93 117 120 112 102 116 105 87 109 141 90 43 17 37 34 34 19 29 55 66 104 146 183 184 188 197 193 186 204 214 339 19 32
nan nan nan nan nan nan nan nan nan nan nan nan nan nan nan nan nan nan nan nan nan nan nan nan nan nan nan nan nan 211 203 191 170 144 126 121 105 94 95 92 90 78 58 36 23 19 23 30 39 44 44 54 74 105 135 118 115 91 88 87 75 131 134 91 14 17 22 4 358 9 21 25 67 94 182 243 237 230 227 227 227 236 245 292 349 15
nan nan nan nan nan nan nan nan nan nan nan nan nan nan nan nan nan nan nan nan nan nan nan nan nan nan nan nan nan 219 204 197 163 146 129 119 110 96 92 91 88 83 69 54 33 25 21 26 40 55 63 74 94 109 97 98 104 106 109 115 112 105 97 79 359 9 15 342 338 344 341 342 344 112 169 221 233 237 241 241 246 262 277 293 326 349
nan nan nan nan nan nan nan nan nan nan nan nan nan nan nan nan nan nan nan nan nan nan nan nan nan nan nan nan nan 220 nan 190 162 151 137 125 118 109 101 97 93 94 87 75 57 39 32 30 42 57 74 95 101 106 122 131 142 134 135 114 90 75 98 86 7 348 349 343 321 335 337 341 315 298 228 231 242 246 253 260 267 266 275 295 315 329
nan nan nan nan nan nan nan nan nan nan nan nan nan nan nan nan nan nan nan nan nan nan nan nan nan nan nan nan nan nan nan 186 179 174 162 146 140 128 114 98 95 95 91 87 76 60 44 37 48 60 64 71 79 109 110 120 122 122 119 106 89 77 107 67 16 354 357 347 334 326 331 335 328 325 301 275 265 259 264 272 281 284 291 299 311 313
nan nan nan nan nan nan nan nan nan nan nan nan nan nan nan nan nan nan nan nan nan nan nan nan nan nan nan nan nan nan nan nan 184 165 166 155 142 135 128 112 91 87 96 92 92 82 53 39 45 52 64 60 53 55 57 75 103 120 124 123 89 92 82 78 37 13 8 358 353 336 331 330 329 323 306 308 302 295 295 290 284 281 282 291 295 298
nan nan nan nan nan nan nan nan nan nan nan nan nan nan nan nan nan nan nan nan nan nan nan nan nan nan nan nan nan nan nan nan 180 nan 168 165 155 147 131 109 105 94 91 97 90 91 81 49 36 39 52 51 49 56 48 51 61 76 110 84 81 88 83 93 60 34 27 19 9 341 327 324 311 328 316 301 300 293 287 281 281 281 284 284 287 297
nan nan nan nan nan nan nan nan nan nan nan nan nan nan nan nan nan nan nan nan nan nan nan nan nan nan nan nan nan nan nan nan nan 170 170 173 172 166 149 138 137 124 102 104 99 93 94 73 45 42 50 41 52 50 52 48 50 52 46 8 63 83 94 115 71 44 34 26 3 329 312 305 301 321 313 291 291 291 284 277 280 283 285 286 300 301
nan nan nan nan nan nan nan nan nan nan nan nan nan nan nan nan nan nan nan nan nan nan nan nan nan nan nan nan nan nan nan nan nan nan 180 177 179 176 171 180 182 172 131 135 131 105 92 88 54 47 51 58 49 44 46 41 25 359 329 321 352 23 357 356 13 13 25 5 332 300 296 289 290 303 300 295 284 286 290 284 281 272 274 282 289 297
nan nan nan nan nan nan nan nan nan nan nan nan nan nan nan nan nan nan nan nan nan nan nan nan nan nan nan nan nan nan nan nan nan nan nan 186 185 188 197 200 203 204 177 159 125 107 97 107 120 121 92 64 41 26 50 37 6 360 350 329 338 348 333 330 334 340 330 301 274 291 294 295 290 281 283 279 278 280 285 284 284 278 276 276 280 283
nan nan nan nan nan nan nan nan nan nan nan nan nan nan nan nan nan nan nan nan nan nan nan nan nan nan nan nan nan nan nan nan nan nan nan nan nan 201 207 207 205 208 234 255 63 86 80 131 173 159 194 255 320 327 360 358 337 349 324 315 324 321 312 320 321 318 291 286 285 292 293 289 288 294 298 292 298 298 282 282 281 278 279 277 275 276
nan nan nan nan nan nan nan nan nan nan nan nan nan nan nan nan nan nan nan nan nan nan nan nan nan nan nan nan nan nan nan nan nan nan nan nan nan nan nan 215 213 210 244 314 9 13 313 287 269 171 207 281 306 325 332 321 311 303 301 321 318 306 321 315 303 303 284 283 283 279 286 290 289 287 292 284 281 279 275 278 277 278 276 281 279 277
nan nan nan nan nan nan nan nan nan nan nan nan nan nan nan nan nan nan nan nan nan nan nan nan nan nan nan nan nan nan nan nan nan nan nan nan nan nan nan nan 217 215 220 221 207 253 297 310 320 329 342 333 312 302 298 293 293 288 299 312 319 321 327 314 294 293 275 284 267 266 279 286 281 277 274 271 270 272 275 283 279 282 279 277 279 280
nan nan nan nan nan nan nan nan nan nan nan nan nan nan nan nan nan nan nan nan nan nan nan nan nan nan nan nan nan nan nan nan nan nan nan nan nan nan nan nan nan 235 234 224 207 198 333 346 349 347 337 329 321 308 294 292 282 303 308 306 311 312 295 296 304 299 301 304 293 282 279 282 280 277 275 272 270 271 277 279 277 279 279 280 279 281
nan nan nan nan nan nan nan nan nan nan nan nan nan nan nan nan nan nan nan nan nan nan nan nan nan nan nan nan nan nan nan nan nan nan nan nan nan nan nan nan nan nan 228 223 242 273 323 354 354 351 340 329 313 293 280 272 285 291 289 298 312 306 307 316 321 308 298 291 293 292 294 292 286 289 280 278 276 274 274 273 273 274 274 273 278 281
nan nan nan nan nan nan nan nan nan nan nan nan nan nan nan nan nan nan nan nan nan nan nan nan nan nan nan nan nan nan nan nan nan nan nan nan nan nan nan nan nan nan nan 219 242 250 226 277 353 336 318 304 296 291 289 276 273 281 287 294 304 305 304 325 320 300 288 284 286 306 304 308 301 299 293 292 284 278 271 269 269 270 270 275 278 280
nan nan nan nan nan nan nan nan nan nan nan nan nan nan nan nan nan nan nan nan nan nan nan nan nan nan nan nan nan nan nan nan nan nan nan nan nan nan nan nan nan 196 nan nan nan nan 191 188 230 288 292 295 297 287 289 281 277 282 296 297 292 303 317 323 319 293 279 283 288 307 310 318 318 311 312 309 293 290 280 272 270 269 273 275 276 278
nan nan nan nan nan nan nan nan nan nan nan nan nan nan nan nan nan nan nan nan nan nan nan nan nan nan nan nan nan nan nan nan nan nan nan nan nan nan nan nan nan 193 197 nan nan nan nan 200 223 242 268 271 276 270 275 271 268 272 278 284 290 311 321 311 286 275 277 282 294 307 316 327 330 336 335 327 309 305 295 282 276 274 277 278 277 280
nan nan nan nan nan nan nan nan nan nan nan nan nan nan nan nan nan nan nan nan nan nan nan nan nan nan nan nan nan nan nan nan nan nan nan nan nan nan nan nan nan 196 204 210 205 nan nan nan 218 240 262 266 264 266 269 266 265 268 274 283 296 303 308 295 277 272 282 294 304 314 327 341 345 351 351 344 332 331 319 304 288 279 282 280 282 283
nan nan nan nan nan nan nan nan nan nan nan nan nan nan nan nan nan nan nan nan nan nan nan nan nan nan nan nan nan nan nan nan nan nan nan nan nan nan nan nan 198 199 199 202 203 206 nan 213 217 231 256 260 264 273 271 264 266 270 273 287 296 296 289 292 281 280 281 291 301 312 333 339 352 1 357 351 349 346 340 330 317 301 289 287 285 283
nan nan nan nan nan nan nan nan nan nan nan nan nan nan nan nan nan nan nan nan nan nan nan nan nan nan nan nan nan nan nan nan nan nan nan nan nan nan nan nan 202 205 199 195 200 202 209 215 222 237 259 267 279 278 277 276 271 270 267 281 298 288 283 285 282 278 282 291 306 311 330 337 348 352 353 351 350 346 346 347 345 341 328 312 303 294
nan nan nan nan nan nan nan nan nan nan nan nan nan nan nan nan nan nan nan nan nan nan nan nan nan nan nan nan nan nan nan nan nan nan nan nan nan nan nan 216 nan nan nan 206 204 207 211 216 223 235 251 266 272 274 279 278 273 268 265 273 284 285 282 277 282 280 281 284 298 312 328 335 338 342 345 347 348 351 352 350 350 352 349 345 344 335
nan nan nan nan nan nan nan nan nan nan nan nan nan nan nan nan nan nan nan nan nan nan nan nan nan nan nan nan nan nan 206 211 nan nan nan nan nan nan nan nan nan nan 214 210 203 206 211 215 222 231 242 258 271 275 279 272 273 262 256 262 266 278 289 281 281 281 283 284 301 313 315 311 317 325 331 334 340 348 351 351 352 352 352 351 355 357
nan nan nan nan nan nan nan nan nan nan nan nan nan nan nan nan nan nan nan nan nan nan nan nan nan nan nan nan nan nan nan nan nan nan nan nan nan nan nan 223 nan nan nan 217 209 207 214 218 223 232 244 259 273 277 278 265 265 270 277 281 281 285 292 276 280 285 294 306 318 305 295 292 297 314 320 324 335 338 339 344 351 357 358 355 355 356
nan nan nan nan nan nan nan nan nan nan nan nan nan nan nan nan nan nan nan nan nan nan nan nan nan nan nan nan nan nan nan nan nan nan nan nan nan nan nan nan 222 221 nan 220 215 210 213 219 220 229 240 253 270 283 287 278 270 269 295 292 300 299 293 290 282 293 305 328 322 290 284 286 302 304 318 325 327 331 333 338 343 353 359 359 358 358
nan nan nan nan nan nan nan nan nan nan nan nan nan nan nan nan nan nan nan nan nan nan nan nan nan nan nan nan nan nan nan nan nan nan nan nan nan nan nan nan 213 213 214 214 215 217 216 219 222 228 243 261 271 279 286 286 271 272 287 298 312 313 300 296 296 303 302 307 275 274 285 300 305 312 320 319 323 325 326 325 334 347 355 354 353 352
nan nan nan nan nan nan nan nan nan nan nan nan nan nan nan nan nan nan nan nan nan nan nan nan nan nan nan nan nan nan nan nan nan nan nan nan nan nan nan nan 217 219 221 225 219 217 nan nan 216 222 235 253 264 277 303 298 283 284 300 303 306 292 295 302 303 294 293 280 283 290 293 296 304 313 311 315 314 313 315 320 327 336 341 346 342 340
nan nan nan nan nan nan nan nan nan nan nan nan nan nan nan nan nan nan nan nan nan nan nan nan nan nan nan nan nan nan nan nan nan nan nan nan nan 233 nan nan nan 220 222 226 nan nan nan 215 210 210 224 240 253 275 287 290 297 288 287 274 264 275 280 282 283 281 284 277 279 284 288 293 303 311 307 299 302 305 312 318 326 327 327 327 328 333
nan nan nan nan nan nan nan nan nan nan nan nan nan nan nan nan nan nan nan nan nan nan nan nan nan nan nan nan nan nan nan nan 215 219 nan 223 228 nan 233 234 232 227 223 227 228 225 222 216 211 207 213 222 228 228 243 268 283 269 266 266 274 278 274 273 275 269 270 271 273 271 275 286 295 297 291 291 295 298 305 311 313 316 313 314 319 328
nan nan nan nan nan nan nan nan nan nan nan nan nan nan nan nan nan nan nan nan nan nan nan nan nan nan nan nan nan nan nan 224 226 227 224 222 225 226 232 235 236 235 230 230 229 227 224 219 217 211 211 221 231 234 243 259 266 265 271 273 272 270 270 267 269 270 267 270 273 275 273 275 277 280 281 284 288 294 301 303 305 304 298 298 304 312
nan nan nan nan nan nan nan nan nan nan nan nan nan nan nan nan nan nan nan nan nan nan nan nan nan nan nan nan nan nan nan nan 228 232 239 232 230 227 228 229 233 235 233 230 230 228 226 220 218 215 214 218 227 236 243 244 249 252 258 266 271 273 275 273 272 274 273 274 275 271 264 261 264 269 275 282 287 295 300 299 299 293 285 292 296 298
nan nan nan nan nan nan nan nan nan nan nan nan nan nan nan nan nan nan nan nan nan nan nan nan nan 231 229 228 nan nan nan nan nan nan 247 247 241 235 233 231 232 236 236 234 231 228 227 225 223 225 225 222 227 231 240 248 249 249 251 257 264 272 277 276 279 279 275 271 269 264 257 256 260 264 275 282 288 293 293 290 287 292 291 295 293 292
nan nan nan nan nan nan nan nan nan nan nan nan nan nan nan nan nan nan nan nan nan nan nan nan nan nan 230 230 230 nan nan nan nan nan 246 250 247 240 237 235 233 234 235 237 234 227 224 223 222 222 229 227 229 236 244 249 256 257 255 256 264 269 272 275 276 279 281 275 270 268 268 266 264 260 261 269 274 276 280 281 282 281 280 286 288 290
nan nan nan nan nan nan nan nan nan nan nan nan nan nan nan nan nan nan nan nan nan nan nan nan nan nan 228 229 231 237 nan nan nan nan 244 249 248 243 238 233 232 231 233 236 238 235 230 228 232 234 231 229 226 236 247 251 255 261 260 262 265 270 273 278 283 275 276 277 275 272 270 271 271 260 257 266 270 272 274 273 276 281 284 288 291 296
nan nan nan nan nan nan nan nan nan nan nan nan nan nan nan nan nan nan nan nan nan nan nan nan nan nan 230 231 236 nan nan 240 239 237 239 242 247 246 242 238 234 231 230 234 238 235 238 238 237 235 231 225 220 227 242 250 256 261 264 264 268 277 279 264 258 261 266 267 270 273 277 278 279 277 267 266 274 277 275 277 284 289 292 298 298 301
nan nan nan nan nan nan nan nan nan nan nan nan nan nan nan nan nan nan nan nan nan nan nan nan nan nan nan 232 236 239 240 242 243 244 243 242 241 242 241 239 238 237 236 236 237 239 240 241 239 237 234 230 226 228 236 246 253 258 261 266 270 266 257 255 259 261 265 268 272 277 282 284 283 278 268 268 273 278 281 285 291 294 298 296 300 311
nan nan nan nan nan nan nan nan nan nan nan nan nan nan nan nan nan nan nan nan nan nan nan nan nan nan nan nan 236 242 247 248 247 245 243 242 241 238 238 238 238 236 233 232 237 240 242 243 241 239 237 235 232 229 231 241 249 251 254 258 256 258 259 261 265 268 270 273 278 284 289 290 291 286 282 282 284 286 289 291 296 299 300 301 301 307
nan nan nan nan nan nan nan nan nan nan 226 229 nan nan nan nan nan nan nan nan nan nan nan nan nan nan 231 nan 234 246 247 249 248 247 245 243 241 239 238 237 237 237 237 235 234 238 243 246 245 242 240 240 238 235 232 237 244 245 249 249 244 248 255 259 262 267 270 271 276 281 284 285 290 290 290 292 290 291 293 297 299 300 302 303 304 306
nan nan nan nan nan nan nan 226 225 nan nan nan 223 227 nan nan nan nan nan nan nan nan nan nan nan 227 231 231 232 242 244 242 244 245 246 244 242 241 240 239 238 238 239 239 237 236 239 245 247 245 242 241 241 241 240 237 241 246 245 243 244 248 255 260 264 270 273 275 277 281 282 284 287 290 291 291 292 293 294 297 297 298 301 301 303 301
nan nan nan nan nan nan nan nan nan nan nan nan 225 227 nan nan nan nan 242 243 242 241 238 236 232 228 228 235 235 238 239 240 242 245 247 247 245 244 244 243 242 241 242 244 244 241 240 242 246 247 244 241 241 243 243 243 242 243 242 243 245 247 251 259 264 267 269 271 274 277 281 284 286 287 288 286 285 287 288 291 291 292 292 294 293 297
nan nan nan nan nan nan nan 228 nan nan 224 227 228 229 229 nan nan nan 242 243 242 242 241 240 237 233 227 230 235 237 239 239 240 241 245 248 247 246 246 247 246 244 244 244 245 246 244 242 243 244 244 242 241 242 244 246 246 246 246 246 247 249 251 256 261 264 267 269 270 272 275 279 278 278 279 281 280 280 281 282 282 283 283 288 290 296
nan nan nan nan nan nan nan nan nan nan nan 223 nan 230 nan nan nan nan 242 243 243 244 244 243 241 239 232 228 227 232 238 240 240 nan nan nan 248 249 248 248 249 248 248 247 247 247 247 245 243 243 244 245 245 245 244 245 246 246 247 247 247 249 253 256 258 262 264 266 265 266 269 271 272 274 274 275 277 278 278 279 280 280 281 283 287 290
nan nan nan nan nan nan nan nan nan nan nan nan nan nan 229 nan nan nan nan 243 242 243 244 246 246 245 241 231 226 229 235 239 239 238 239 nan 244 248 249 250 251 251 250 251 249 248 248 247 245 244 244 246 248 248 249 249 249 248 247 248 249 250 253 255 258 260 261 262 264 264 264 265 266 268 269 268 270 272 272 275 277 279 278 281 280 283
nan nan nan nan nan nan nan nan 225 nan 226 227 nan 227 230 232 232 nan nan 244 241 nan 246 247 247 247 246 241 233 228 230 235 238 238 239 239 239 244 247 248 249 250 250 251 251 249 248 247 246 246 246 247 248 248 248 249 249 249 248 248 249 251 253 255 256 257 258 259 260 260 261 262 264 264 267 269 271 271 271 269 268 270 269 270 262 255
nan nan nan nan nan nan nan nan nan nan nan nan nan nan nan 226 228 235 nan nan nan nan 245 248 246 245 245 246 243 237 232 232 234 237 240 240 239 242 245 247 247 248 249 249 250 250 248 245 245 248 249 249 249 247 246 247 248 249 250 251 251 252 252 254 256 257 259 259 260 261 262 263 264 266 268 270 271 273 272 271 271 268 268 270 268 266